User: anonymous   Login
Location: Prairie State College
(41.5244°N, 87.6382°W)
Time: 07:28:10
(UTC-05:00)
Language:

Cosmos 1140 Rocket - Orbit

View from above orbital plane
View from above orbital plane
View from above satellite
View from above satellite

Ground track
Ground track

The orbit data is extracted from the following two-line orbital elements,

1 11574U 79089B   16209.27661738  .00000043  00000-0  21635-4 0  9997
2 11574  74.0699  98.7561 0014873  86.4171 273.8685 14.40580035930350
Epoch (UTC): 27 July 2016 06:38:19
Eccentricity: 0.0014873
inclination: 74.0699°
perigee height: 746 km
apogee height: 767 km
right ascension of ascending node: 98.7561°
argument of perigee: 86.4171°
revolutions per day: 14.40580035
mean anomaly at epoch: 273.8685°
orbit number at epoch: 93035

The dashed part of the orbit path shows where the satellite is in the earth's shadow,  

DLR